Location: Unspecified
(55.7024°N, 37.6611°E)
Time: 18:39:09
(UTC+03:00)

Transit 2A - Visible Passes

Search period start: 23 June 2025 00:00
Search period end: 03 July 2025 00:00
Orbit: 599 x 947 km, 66.7° (Epoch: 22 June)

Date Brightness Start Highest point End Pass type
(mag) Time Alt. Az. Time Alt. Az. Time Alt. Az.
23 Jun 7.1 01:36:56 10° W 01:40:55 34° NNW 01:45:00 10° NE visible
23 Jun 5.9 23:17:32 10° SSW 23:21:41 44° ESE 23:25:51 10° NE visible
24 Jun 6.7 01:00:35 10° WSW 01:04:43 42° NW 01:08:58 10° NE visible
24 Jun 6.4 22:41:56 10° S 22:45:47 31° ESE 22:49:38 10° ENE visible
25 Jun 6.2 00:24:18 10° WSW 00:28:34 55° NW 00:32:56 10° NE visible
25 Jun 8.0 02:08:56 10° WNW 02:12:28 23° NNW 02:16:05 10° NE visible
25 Jun 5.7 23:48:08 10° SW 23:52:28 74° NW 23:56:54 10° NE visible
26 Jun 7.8 01:32:29 10° WNW 01:36:09 26° NNW 01:39:57 10° NE visible
26 Jun 5.5 23:12:05 10° SW 23:16:25 82° SE 23:20:50 10° NE visible
27 Jun 7.5 00:56:02 10° W 00:59:53 30° NNW 01:03:52 10° NE visible
27 Jun 8.3 02:40:50 10° NW 02:44:11 20° N 02:47:40 10° NE visible
27 Jun 5.6 22:36:09 10° SSW 22:40:25 58° SE 22:44:45 10° NE visible
28 Jun 7.2 00:19:37 10° W 00:23:39 36° NNW 00:27:48 10° NE visible
28 Jun 8.3 02:04:28 10° NW 02:07:50 21° N 02:11:19 10° NE visible
28 Jun 6.7 23:43:17 10° WSW 23:47:28 45° NW 23:51:45 10° NE visible
29 Jun 8.3 01:28:03 10° WNW 01:31:30 22° N 01:35:03 10° NE visible
29 Jun 6.2 23:07:02 10° WSW 23:11:19 59° NW 23:15:43 10° NE visible
30 Jun 8.1 00:51:36 10° WNW 00:55:10 24° NNW 00:58:52 10° NE visible
30 Jun 8.5 02:36:04 10° NW 02:39:35 22° N 02:43:16 10° ENE visible
30 Jun 5.7 22:30:53 10° SW 22:35:13 80° NW 22:39:41 10° NE visible
01 Jul 7.9 00:15:08 10° W 00:18:52 27° NNW 00:22:44 10° NE visible
01 Jul 8.5 01:59:49 10° NW 02:03:14 21° N 02:06:48 10° NE visible
01 Jul 7.6 23:38:41 10° W 23:42:35 31° NNW 23:46:38 10° NE visible
02 Jul 8.5 01:23:30 10° NW 01:26:53 21° N 01:30:24 10° NE visible
02 Jul 7.2 23:02:18 10° W 23:06:22 38° NNW 23:10:35 10° NE visible
